THOR BURNER 2A DEB

Satellite information

Favourite Embed

Satellite Type and Status

DEBRISIN ORBIT

Key statistics

Satellite THOR BURNER 2A DEB at a glance.

Uptime

18742

Days in orbit

Revolutions

≈ 14.4

Per day

Orbit

SSO

Sun Synchronous Orbit

Inclination

99.1

Latest

Satellite identification and parameters

Extended collection of information and parameters for THOR BURNER 2A DEB.

Object identification

Identified? True

Debris? True

Object name: THOR BURNER 2A DEB

International designator: 1974-015E

Object number (NORAD): 28593

Object ID (CCSDS): 28593

Country: UNITED STATES OF AMERICA (US)

Current information (Y/N): Y

RCS size: SMALL

Orbital parameters

Period: 100.066 minutes

Inclination: 99.1057 deg

SMA: 7139.785 km

Apoapsis: 804.049 km

Periapsis: 719.25 km

RAAN: 209.7012 deg

Eccentricy: 0.0059385

Argument of periapsis: 56.5826 deg

Mean anomaly: 304.102 deg

Mean motion: 14.39047386 rev/day

Mean motion (dot): 0.00001181 rev/day2

B* drag term: 0.0003901 1/REarth

Two-line elements (TLE)

Creation date: July 5, 2025, 5:45 p.m.

Reference frame: TEME

Reference center: EARTH

Epoch: July 5, 2025, 12:49 p.m. UTC

TLE line 0: 0 THOR BURNER 2A DEB

TLE line 1: 1 28593U 74015E 25186.53466522 .00001181 00000-0 39010-3 0 9996

TLE line 2: 2 28593 99.1057 209.7012 0059385 56.5826 304.1020 14.39047386 65256

Live tracking on map

Real-time ground track for satellite THOR BURNER 2A DEB.

In-orbit conjunctions

A list of the most updated potential collisions computed for object THOR BURNER 2A DEB.

Target Orbit TCA Probability of collision Miss distance Type
COSMOS 1452 LEO 2025-01-08 07:13:30 0.0003876119 678.0 (m) PAYLOAD
FENGYUN 1C DEB SSO 2024-07-03 16:30:29 0.00015274 672.0 (m) DEBRIS

Associated space launch

Military meteorological satellite

THOR BURNER 2A DEB was lifted into orbit during the mission ‘Thor Burner 2A | DMSP-5B F5’, on board a Thor Burner 2A space rocket.

The launch took place on March 16, 1974, 8 a.m. from Space Launch Complex 10W.

For more information about the launch, click the button.

Launch to space Thor Burner 2A | DMSP-5B F5
Thor Burner 2A | DMSP-5B F5

Agency: N/A

Status: Launch Successful

Launch date: March 16, 1974, 8 a.m. UTC

Rocket: Thor Burner 2A

Launch pad: Space Launch Complex 10W

Location: Vandenberg SFB, CA, USA

...

Latest news about this satellite

There are no fresh news available about this satellite. Check back as we update our databases every day.


Newsletter sign-up

Weekly statistics, charts and insights to help you stay on top of the space industry.